BAW717 KBOS-EGLL

Flight info

Callsign BAW717
Flight time N/A
Altitude 35000
Route LBSTA8 LBSTA DCT ENE DCT TUFFI DCT TAFFY N693A NEEKO/M084F370 DCT 5350N DCT 5440N DCT 5430N DCT 5420N DCT DOGAL/N0486F370 DCT BEXET/N0489F390 DCT ENJEX DCT AVZAC DCT INFEC DCT JETZI DCT AMFUL DCT ORZEB/N0453F230 P2 SIRIC
Aircraft B77W/H-SDE1E2E3FGHIJ2J3J4J5M1RWXY/LB1D1

Departure

Time 2026-05-03 22:22
Airport Boston Logan International Airport (KBOS)

Arrival

Time N/A
Airport London Heathrow Airport (EGLL)
Time Latitude Longitude Altitude Speed Heading
2026-05-03 21:38 42.37109 -71.01930 30 ft 0 kts 212°
2026-05-03 22:01 42.37123 -71.01919 29 ft 4 kts 210°
2026-05-03 22:02 42.37141 -71.01905 28 ft 3 kts 210°
2026-05-03 22:02 42.37164 -71.01886 28 ft 4 kts 213°
2026-05-03 22:02 42.37186 -71.01865 28 ft 4 kts 216°
2026-05-03 22:02 42.37208 -71.01844 28 ft 3 kts 213°
2026-05-03 22:03 42.37212 -71.01840 27 ft 0 kts 213°
2026-05-03 22:08 42.37211 -71.01841 27 ft 0 kts 212°
2026-05-03 22:08 42.37206 -71.01842 28 ft 1 kts 191°
2026-05-03 22:09 42.37202 -71.01841 29 ft 1 kts 178°
2026-05-03 22:09 42.37153 -71.01786 30 ft 18 kts 132°
2026-05-03 22:09 42.37080 -71.01669 30 ft 17 kts 133°
2026-05-03 22:10 42.36917 -71.01441 29 ft 14 kts 135°
2026-05-03 22:10 42.36881 -71.01392 30 ft 3 kts 133°
2026-05-03 22:10 42.36871 -71.01378 30 ft 2 kts 134°
2026-05-03 22:10 42.36848 -71.01346 30 ft 13 kts 134°
2026-05-03 22:11 42.36802 -71.01289 30 ft 9 kts 141°
2026-05-03 22:11 42.36741 -71.01253 30 ft 12 kts 178°
2026-05-03 22:11 42.36722 -71.01253 30 ft 0 kts 179°
2026-05-03 22:11 42.36706 -71.01254 30 ft 9 kts 183°
2026-05-03 22:12 42.36677 -71.01260 30 ft 0 kts 192°
2026-05-03 22:12 42.36654 -71.01269 30 ft 6 kts 196°
2026-05-03 22:12 42.36599 -71.01287 30 ft 14 kts 198°
2026-05-03 22:12 42.36480 -71.01358 30 ft 18 kts 205°
2026-05-03 22:13 42.36398 -71.01395 30 ft 8 kts 177°
2026-05-03 22:13 42.36378 -71.01380 30 ft 3 kts 139°
2026-05-03 22:13 42.36329 -71.01299 30 ft 19 kts 124°
2026-05-03 22:13 42.36249 -71.01114 30 ft 23 kts 115°
2026-05-03 22:14 42.36211 -71.01003 30 ft 19 kts 117°
2026-05-03 22:14 42.36176 -71.00901 30 ft 10 kts 112°
2026-05-03 22:14 42.36142 -71.00789 30 ft 15 kts 112°
2026-05-03 22:14 42.36111 -71.00681 31 ft 8 kts 110°
2026-05-03 22:15 42.36087 -71.00590 30 ft 19 kts 109°
2026-05-03 22:15 42.36044 -71.00416 30 ft 15 kts 109°
2026-05-03 22:15 42.36011 -71.00293 30 ft 8 kts 110°
2026-05-03 22:15 42.35993 -71.00224 30 ft 14 kts 109°
2026-05-03 22:16 42.35976 -71.00159 30 ft 13 kts 111°
2026-05-03 22:16 42.35934 -71.00063 30 ft 14 kts 128°
2026-05-03 22:16 42.35865 -70.99964 30 ft 19 kts 135°
2026-05-03 22:16 42.35775 -70.99844 30 ft 17 kts 135°
2026-05-03 22:17 42.35702 -70.99744 30 ft 19 kts 135°
2026-05-03 22:17 42.35632 -70.99649 30 ft 13 kts 135°
2026-05-03 22:17 42.35614 -70.99625 30 ft 7 kts 135°
2026-05-03 22:17 42.35570 -70.99567 30 ft 7 kts 133°
2026-05-03 22:18 42.35548 -70.99537 30 ft 3 kts 135°
2026-05-03 22:18 42.35524 -70.99506 30 ft 0 kts 135°
2026-05-03 22:18 42.35524 -70.99505 30 ft 0 kts 135°
2026-05-03 22:19 42.35517 -70.99496 30 ft 1 kts 135°
2026-05-03 22:19 42.35514 -70.99492 30 ft 5 kts 133°
2026-05-03 22:19 42.35494 -70.99400 30 ft 7 kts 86°
2026-05-03 22:20 42.35494 -70.99395 30 ft 1 kts 84°
2026-05-03 22:20 42.35504 -70.99342 30 ft 12 kts 64°
2026-05-03 22:20 42.35569 -70.99320 30 ft 11 kts 334°
2026-05-03 22:20 42.35609 -70.99362 30 ft 0 kts 316°
2026-05-03 22:21 42.35738 -70.99531 29 ft 66 kts 315°
2026-05-03 22:21 42.36273 -71.00244 28 ft 149 kts 315°
2026-05-03 22:21 42.37183 -71.01468 86 ft 217 kts 316°
2026-05-03 22:21 42.38252 -71.02898 372 ft 209 kts 314°
2026-05-03 22:22 42.39233 -71.04320 638 ft 203 kts 311°
2026-05-03 22:22 42.40142 -71.05766 740 ft 200 kts 304°
2026-05-03 22:22 42.40885 -71.07447 1171 ft 214 kts 298°
2026-05-03 22:22 42.41593 -71.09321 1642 ft 235 kts 294°
2026-05-03 22:23 42.42448 -71.11235 1970 ft 243 kts 319°
2026-05-03 22:23 42.43961 -71.12269 2426 ft 246 kts 341°
2026-05-03 22:23 42.45621 -71.12982 2897 ft 255 kts 344°
2026-05-03 22:23 42.47341 -71.13628 3372 ft 264 kts 342°
2026-05-03 22:24 42.49121 -71.14363 3905 ft 268 kts 349°
2026-05-03 22:24 42.50983 -71.14179 4344 ft 275 kts 23°
2026-05-03 22:24 42.52534 -71.12698 4923 ft 277 kts 48°
2026-05-03 22:24 42.53732 -71.10650 4985 ft 281 kts 53°
2026-05-03 22:25 42.54896 -71.08497 5006 ft 281 kts 54°
2026-05-03 22:25 42.56029 -71.06371 5005 ft 279 kts 54°
2026-05-03 22:25 42.57167 -71.04228 5001 ft 277 kts 54°
2026-05-03 22:25 42.58285 -71.02125 5000 ft 276 kts 54°
2026-05-03 22:26 42.59417 -70.99999 5006 ft 276 kts 54°
2026-05-03 22:26 42.60535 -70.97904 5009 ft 276 kts 54°
2026-05-03 22:26 42.61654 -70.95808 5009 ft 276 kts 54°
2026-05-03 22:26 42.62789 -70.93686 5009 ft 276 kts 53°
2026-05-03 22:27 42.63907 -70.91596 5011 ft 276 kts 53°
2026-05-03 22:27 42.65039 -70.89480 5010 ft 277 kts 53°
2026-05-03 22:27 42.66180 -70.87348 5011 ft 277 kts 53°
2026-05-03 22:27 42.67304 -70.85246 5011 ft 278 kts 53°
2026-05-03 22:28 42.68449 -70.83102 5009 ft 279 kts 54°
2026-05-03 22:28 42.69579 -70.80987 5010 ft 279 kts 54°
2026-05-03 22:28 42.70724 -70.78840 5009 ft 279 kts 54°
2026-05-03 22:28 42.71858 -70.76715 5008 ft 280 kts 54°
2026-05-03 22:29 42.72621 -70.75282 5008 ft 280 kts 54°
2026-05-03 22:29 42.74139 -70.72433 5006 ft 279 kts 54°
2026-05-03 22:29 42.74900 -70.71004 5006 ft 279 kts 54°
2026-05-03 22:29 42.76041 -70.68860 5007 ft 279 kts 54°
2026-05-03 22:30 42.77171 -70.66733 5005 ft 278 kts 54°
2026-05-03 22:30 42.78310 -70.64588 5005 ft 278 kts 54°
2026-05-03 22:30 42.79511 -70.62573 4984 ft 272 kts 38°
2026-05-03 22:30 42.81193 -70.61485 5022 ft 274 kts
2026-05-03 22:31 42.83111 -70.61346 5021 ft 278 kts 359°
2026-05-03 22:31 42.85047 -70.61355 5020 ft 280 kts 359°
2026-05-03 22:31 42.87004 -70.61361 5020 ft 280 kts 359°
2026-05-03 22:31 42.88932 -70.61368 5508 ft 279 kts 359°
2026-05-03 22:32 42.90889 -70.61376 6235 ft 280 kts 359°
2026-05-03 22:32 42.92835 -70.61383 6880 ft 282 kts 359°
2026-05-03 22:32 42.94798 -70.61388 7490 ft 285 kts 359°
2026-05-03 22:32 42.96782 -70.61392 8100 ft 287 kts 359°
2026-05-03 22:33 42.98807 -70.61395 8710 ft 290 kts 359°
2026-05-03 22:33 43.00820 -70.61397 9299 ft 293 kts 359°
2026-05-03 22:33 43.02878 -70.61398 9884 ft 295 kts 359°
2026-05-03 22:33 43.04954 -70.61399 10375 ft 303 kts 359°
2026-05-03 22:34 43.07112 -70.61400 10511 ft 322 kts 359°
2026-05-03 22:34 43.09428 -70.61400 10671 ft 341 kts 360°
2026-05-03 22:34 43.11854 -70.61401 10858 ft 360 kts 360°
2026-05-03 22:34 43.14420 -70.61401 11269 ft 371 kts 360°
2026-05-03 22:35 43.17018 -70.61401 11808 ft 378 kts 360°
2026-05-03 22:35 43.19640 -70.61400 12458 ft 381 kts 360°
2026-05-03 22:35 43.22321 -70.61400 13139 ft 384 kts 360°
2026-05-03 22:35 43.24990 -70.61400 13787 ft 387 kts 360°
2026-05-03 22:36 43.27711 -70.61400 14413 ft 391 kts 360°
2026-05-03 22:36 43.30416 -70.61400 15016 ft 395 kts 360°
2026-05-03 22:36 43.33198 -70.61400 15618 ft 398 kts 360°
2026-05-03 22:36 43.35961 -70.61400 16205 ft 402 kts 360°
2026-05-03 22:37 43.38790 -70.61400 16789 ft 405 kts 360°
2026-05-03 22:37 43.41629 -70.61400 17357 ft 409 kts 360°
2026-05-03 22:37 43.44456 -70.61239 17897 ft 412 kts
2026-05-03 22:37 43.47340 -70.60892 18439 ft 416 kts
2026-05-03 22:38 43.50208 -70.60532 18958 ft 419 kts
2026-05-03 22:38 43.53145 -70.60160 19486 ft 422 kts
2026-05-03 22:38 43.56048 -70.59797 19991 ft 425 kts
2026-05-03 22:38 43.59036 -70.59426 20494 ft 428 kts
2026-05-03 22:39 43.62012 -70.59062 20980 ft 432 kts
2026-05-03 22:39 43.65005 -70.58697 21453 ft 435 kts
2026-05-03 22:39 43.68004 -70.58333 21903 ft 438 kts
2026-05-03 22:39 43.71060 -70.57962 22355 ft 441 kts
2026-05-03 22:40 43.74104 -70.57592 22788 ft 444 kts
2026-05-03 22:40 43.77213 -70.57215 23218 ft 447 kts
2026-05-03 22:40 43.80297 -70.56840 23633 ft 449 kts
2026-05-03 22:40 43.83449 -70.56456 24041 ft 452 kts
2026-05-03 22:41 43.86568 -70.56075 24436 ft 455 kts
2026-05-03 22:41 43.89721 -70.55691 24823 ft 457 kts
2026-05-03 22:41 43.92879 -70.55305 25193 ft 460 kts
2026-05-03 22:41 43.96094 -70.54911 25554 ft 463 kts
2026-05-03 22:42 43.99289 -70.54520 25893 ft 465 kts
2026-05-03 22:42 44.02544 -70.54121 26248 ft 468 kts
2026-05-03 22:42 44.05764 -70.53725 26572 ft 470 kts
2026-05-03 22:42 44.09060 -70.53320 26902 ft 473 kts
2026-05-03 22:43 44.12322 -70.52919 27210 ft 475 kts
2026-05-03 22:43 44.15622 -70.52513 27523 ft 477 kts
2026-05-03 22:43 44.18917 -70.52106 27831 ft 479 kts
2026-05-03 22:43 44.22265 -70.51693 28126 ft 481 kts
2026-05-03 22:44 44.25582 -70.51283 28395 ft 483 kts
2026-05-03 22:44 44.28951 -70.50866 28658 ft 485 kts
2026-05-03 22:44 44.32308 -70.50450 28873 ft 488 kts
2026-05-03 22:45 44.39129 -70.49604 28992 ft 494 kts
2026-05-03 22:45 44.46043 -70.48744 29004 ft 500 kts
2026-05-03 22:46 44.52975 -70.47880 29003 ft 500 kts
2026-05-03 22:46 44.59910 -70.47013 29001 ft 499 kts
2026-05-03 22:47 44.66768 -70.46154 28996 ft 497 kts
2026-05-03 22:47 44.73672 -70.45287 29001 ft 496 kts
2026-05-03 22:48 44.80442 -70.43887 29010 ft 495 kts 18°
2026-05-03 22:48 44.86582 -70.39529 29007 ft 496 kts 37°
2026-05-03 22:49 44.91864 -70.33326 29008 ft 498 kts 40°
2026-05-03 22:49 44.97156 -70.27023 29008 ft 501 kts 40°
2026-05-03 22:50 45.02517 -70.20714 29007 ft 503 kts 39°
2026-05-03 22:50 45.07927 -70.14387 28995 ft 503 kts 39°
2026-05-03 22:51 45.13279 -70.08125 29004 ft 501 kts 39°
2026-05-03 22:51 45.18645 -70.01828 28994 ft 499 kts 39°
2026-05-03 22:52 45.23984 -69.95542 28996 ft 498 kts 39°